Flag for Philippines Weather past 2 weeks in Olongapo, Philippines

Now
86 °F

Broken clouds.


Feels Like: 93 °F
Forecast: 78 / 91 °F
Wind: 2 mph from North

Location: Subic Bay Weather Station

Current Time: May 6, 2015 at 5:31:49 PM

Latest Report: May 6, 2015 at 5:00 PM


Visibility: N/A

Pressure: 29.74 "Hg

Humidity: 66%

Dew point: 73 °F

Location of OlongapoLocation

Historic Weather in Olongapo — Graph

°F

Olongapo temperature yesterday

Maximum temperature yesterday: 90 °F (at 9:00 AM)
Minimum temperature yesterday: 77 °F (at 6:00 AM)
Average temperature yesterday: 85 °F

Past Weeks' High & Low Weather Summary

 TemperatureHumidityPressure
High97 °F (Apr 22, 2:00 PM)89% (Apr 29, 3:00 AM)29.95 "Hg (Apr 29, 3:00 AM)
Low77 °F (Apr 23, 1:00 AM)16% (Apr 29, 9:00 AM)29.71 "Hg (May 5, 2:00 PM)
Average85 °F64%29.83 "Hg
* Reported Apr 21 5:00 PM — May 6 4:00 PM, Olongapo, Weather by CustomWeather, © 2015

Note: Actual official high and low records may vary slightly from our data, if they occured in-between our weather recording intervals... More about our weather records

Advertising

Olongapo weather history for previous 24 hours

 ConditionsComfort  
Time TempWeatherWind HumidityBarometerVisibility
4:00 PM
Wed, May 6
88 °FPartly sunny.12 mph66%29.74 "HgN/A
3:00 PM90 °FThundershowers. Partly sunny.14 mph59%29.74 "HgN/A
2:00 PM90 °FThunderstorms. Partly sunny.14 mph59%29.74 "HgN/A
1:00 PM90 °FPartly sunny.12 mph59%29.77 "HgN/A
12:00 PM91 °FPartly sunny.10 mph56%29.77 "HgN/A
11:00 AM90 °FPartly sunny.8 mph59%29.80 "HgN/A
10:00 AM90 °FPartly sunny.2 mph55%29.80 "HgN/A
9:00 AM86 °FPartly sunny.2 mph66%29.83 "HgN/A
8:00 AM82 °FPartly sunny.5 mph74%29.80 "HgN/A
7:00 AM79 °FPartly sunny.5 mph79%29.80 "HgN/A
6:00 AM79 °FBroken clouds.No wind79%29.77 "HgN/A
5:00 AM79 °FPassing clouds.No wind79%29.77 "HgN/A
3:00 AM79 °FPassing clouds.2 mph84%29.77 "HgN/A
2:00 AM81 °FPassing clouds.No wind79%29.77 "HgN/A
1:00 AM81 °FPassing clouds.No wind79%29.80 "HgN/A
12:00 AM81 °FPassing clouds.No wind79%29.80 "HgN/A
11:00 PM
Tue, May 5
82 °FPassing clouds.1 mph79%29.80 "HgN/A
10:00 PM82 °FPassing clouds.2 mph79%29.80 "HgN/A
9:00 PM82 °FPartly cloudy.1 mph79%29.77 "HgN/A
8:00 PM84 °FPartly cloudy.5 mph70%29.77 "HgN/A
7:00 PM84 °FPartly cloudy.6 mph74%29.74 "HgN/A
6:00 PM84 °FPartly sunny.7 mph74%29.71 "HgN/A
5:00 PM86 °FBroken clouds.8 mph70%29.71 "HgN/A
Weather by CustomWeather, © 2015

See weather overviewHow to use our weather pages